status,avgMeasuredTime,avgSpeed,extID,medianMeasuredTime,TIMESTAMP,vehicleCount,_id,REPORT_ID
OK,95,46,955,95,2014-08-01T08:00:00,2,20747010,201934
OK,130,33,955,130,2014-08-01T08:10:00,5,20747832,201934
OK,145,30,955,145,2014-08-01T08:15:00,6,20748281,201934
OK,113,38,955,113,2014-08-01T08:20:00,8,20748730,201934
OK,107,40,955,107,2014-08-01T08:25:00,6,20749179,201934
OK,87,50,955,87,2014-08-01T08:30:00,2,20749628,201934
OK,122,35,955,122,2014-08-01T08:35:00,6,20750077,201934
OK,122,35,955,122,2014-08-01T08:40:00,5,20750526,201934
OK,130,33,955,130,2014-08-01T08:45:00,2,20750975,201934
OK,168,26,955,168,2014-08-01T08:50:00,8,20751424,201934
OK,186,23,955,186,2014-08-01T08:55:00,8,20751873,201934
OK,184,23,955,184,2014-08-01T09:00:00,9,20752322,201934
OK,177,24,955,177,2014-08-01T09:05:00,11,20752771,201934
OK,95,46,955,95,2014-08-01T09:10:00,5,20753220,201934
OK,137,31,955,137,2014-08-01T09:20:00,9,20754118,201934
OK,119,36,955,119,2014-08-01T09:25:00,8,20754567,201934
OK,123,35,955,123,2014-08-01T09:30:00,4,20755016,201934
OK,153,28,955,153,2014-08-01T09:35:00,5,20755465,201934
OK,112,39,955,112,2014-08-01T09:40:00,5,20755914,201934
OK,116,37,955,116,2014-08-01T09:45:00,7,20756363,201934
OK,126,34,955,126,2014-08-01T09:50:00,6,20756812,201934
OK,136,32,955,136,2014-08-01T09:55:00,5,20757261,201934
OK,168,26,955,168,2014-08-01T10:00:00,5,20757710,201934
OK,137,31,955,137,2014-08-01T10:05:00,7,20758159,201934
OK,117,37,955,117,2014-08-01T10:15:00,4,20759057,201934
OK,117,37,955,117,2014-08-01T10:20:00,5,20759506,201934
OK,110,39,955,110,2014-08-01T10:25:00,9,20759955,201934
OK,123,35,955,123,2014-08-01T10:30:00,8,20760404,201934
OK,125,35,955,125,2014-08-01T10:35:00,7,20760853,201934
OK,147,29,955,147,2014-08-01T10:40:00,4,20761302,201934
OK,136,32,955,136,2014-08-01T10:45:00,4,20761751,201934
OK,144,30,955,144,2014-08-01T10:50:00,6,20762200,201934
OK,153,28,955,153,2014-08-01T10:55:00,5,20762649,201934
OK,110,39,955,110,2014-08-01T11:00:00,6,20763098,201934
OK,121,36,955,121,2014-08-01T11:05:00,6,20763547,201934
OK,138,31,955,138,2014-08-01T11:10:00,3,20763996,201934
OK,84,52,955,84,2014-08-01T11:15:00,1,20764444,201934
OK,107,40,955,107,2014-08-01T11:20:00,2,20764893,201934
OK,110,39,955,110,2014-08-01T11:25:00,6,20765342,201934
OK,94,46,955,94,2014-08-01T11:30:00,4,20765791,201934
OK,146,29,955,146,2014-08-01T11:35:00,1,20766240,201934
OK,87,50,955,87,2014-08-01T11:40:00,4,20766689,201934
OK,95,46,955,95,2014-08-01T11:45:00,5,20767138,201934
OK,150,29,955,150,2014-08-01T11:50:00,7,20767587,201934
OK,147,29,955,147,2014-08-01T11:55:00,8,20768036,201934
OK,111,39,955,111,2014-08-01T12:00:00,5,20768485,201934
OK,144,30,955,144,2014-08-01T12:10:00,5,20769383,201934
OK,139,31,955,139,2014-08-01T12:15:00,3,20769832,201934
OK,145,30,955,145,2014-08-01T12:20:00,2,20770281,201934
OK,171,25,955,171,2014-08-01T12:25:00,7,20770730,201934
OK,139,31,955,139,2014-08-01T12:30:00,8,20771179,201934
OK,147,29,955,147,2014-08-01T12:35:00,7,20771628,201934
OK,148,29,955,148,2014-08-01T12:40:00,8,20772077,201934
OK,125,35,955,125,2014-08-01T12:45:00,9,20772526,201934
OK,128,34,955,128,2014-08-01T12:50:00,10,20772975,201934
OK,149,29,955,149,2014-08-01T12:55:00,10,20773424,201934
OK,167,26,955,167,2014-08-01T13:00:00,11,20773873,201934
OK,193,22,955,193,2014-08-01T13:05:00,10,20774322,201934
OK,168,26,955,168,2014-08-01T13:10:00,7,20774771,201934
OK,207,21,955,207,2014-08-01T13:15:00,4,20775220,201934
OK,196,22,955,196,2014-08-01T13:20:00,9,20775669,201934
OK,115,38,955,115,2014-08-01T13:25:00,9,20776118,201934
OK,113,38,955,113,2014-08-01T13:30:00,10,20776567,201934
OK,142,30,955,142,2014-08-01T13:35:00,12,20777016,201934
OK,151,28,955,151,2014-08-01T13:40:00,8,20777465,201934
OK,219,19,955,219,2014-08-01T13:45:00,3,20777914,201934
OK,187,23,955,187,2014-08-01T13:50:00,2,20778363,201934
OK,131,33,955,131,2014-08-01T14:00:00,7,20779261,201934
OK,109,40,955,109,2014-08-01T14:05:00,5,20779710,201934
OK,177,24,955,177,2014-08-01T14:10:00,3,20780159,201934
OK,173,25,955,173,2014-08-01T14:15:00,4,20780608,201934
OK,141,31,955,141,2014-08-01T14:20:00,4,20781057,201934
OK,119,36,955,119,2014-08-01T14:25:00,6,20781506,201934
OK,134,32,955,134,2014-08-01T14:30:00,8,20781955,201934
OK,143,30,955,143,2014-08-01T14:35:00,6,20782404,201934
OK,164,26,955,164,2014-08-01T14:40:00,3,20782853,201934
OK,126,34,955,126,2014-08-01T14:45:00,2,20783302,201934
OK,136,32,955,136,2014-08-01T14:50:00,2,20783751,201934
OK,114,38,955,114,2014-08-01T15:00:00,6,20784649,201934
OK,121,36,955,121,2014-08-01T15:05:00,8,20785098,201934
OK,129,33,955,129,2014-08-01T15:10:00,6,20785547,201934
OK,76,57,955,76,2014-08-01T15:15:00,5,20785996,201934
OK,75,58,955,75,2014-08-01T15:20:00,4,20786445,201934
OK,74,59,955,74,2014-08-01T15:25:00,3,20786894,201934
OK,88,49,955,88,2014-08-01T15:30:00,4,20787343,201934
OK,111,39,955,111,2014-08-01T15:35:00,6,20787792,201934
OK,130,33,955,130,2014-08-01T15:40:00,4,20788241,201934
OK,132,33,955,132,2014-08-01T15:45:00,4,20788690,201934
OK,127,34,955,127,2014-08-01T15:50:00,2,20789139,201934
OK,113,38,955,113,2014-08-01T15:55:00,2,20789588,201934
OK,145,30,955,145,2014-08-01T16:00:00,1,20790037,201934
OK,134,32,955,134,2014-08-01T16:05:00,2,20790486,201934
OK,124,35,955,124,2014-08-01T16:10:00,1,20790935,201934
OK,136,32,955,136,2014-08-01T16:15:00,3,20791384,201934
OK,137,31,955,137,2014-08-01T16:20:00,3,20791833,201934
OK,136,32,955,136,2014-08-01T16:25:00,0,20792282,201934
OK,136,32,955,136,2014-08-01T16:30:00,0,20792731,201934
OK,133,32,955,133,2014-08-01T16:35:00,2,20793180,201934
OK,130,33,955,130,2014-08-01T16:40:00,3,20793629,201934
OK,98,44,955,98,2014-08-01T16:45:00,2,20794078,201934
OK,124,35,955,124,2014-08-01T16:50:00,6,20794527,201934
OK,132,33,955,132,2014-08-01T16:55:00,3,20794976,201934
OK,132,33,955,132,2014-08-01T17:00:00,3,20795425,201934
OK,98,44,955,98,2014-08-01T17:05:00,1,20795874,201934
OK,96,45,955,96,2014-08-01T17:10:00,2,20796323,201934
OK,96,45,955,96,2014-08-01T17:15:00,2,20796772,201934
OK,96,45,955,96,2014-08-01T17:20:00,0,20797221,201934
OK,129,33,955,129,2014-08-01T17:25:00,4,20797670,201934
OK,131,33,955,131,2014-08-01T17:30:00,7,20798119,201934
OK,137,31,955,137,2014-08-01T17:35:00,2,20798568,201934
OK,131,33,955,131,2014-08-01T17:40:00,0,20799017,201934
OK,140,31,955,140,2014-08-01T17:45:00,2,20799466,201934
OK,127,34,955,127,2014-08-01T17:50:00,2,20799915,201934
OK,108,40,955,108,2014-08-01T17:55:00,3,20800364,201934
OK,79,55,955,79,2014-08-01T18:00:00,2,20800813,201934
OK,93,47,955,93,2014-08-01T18:05:00,3,20801262,201934
OK,93,47,955,93,2014-08-01T18:10:00,3,20801711,201934
OK,170,25,955,170,2014-08-01T18:15:00,1,20802160,201934
OK,156,28,955,156,2014-08-01T18:20:00,1,20802609,201934
OK,156,28,955,156,2014-08-01T18:25:00,1,20803058,201934
OK,98,44,955,98,2014-08-01T18:30:00,1,20803507,201934
OK,98,44,955,98,2014-08-01T18:35:00,1,20803956,201934
OK,221,19,955,221,2014-08-01T18:40:00,1,20804405,201934
OK,221,19,955,221,2014-08-01T18:45:00,1,20804854,201934
OK,221,19,955,221,2014-08-01T18:50:00,0,20805303,201934
OK,326,13,955,326,2014-08-01T18:55:00,1,20805752,201934
OK,326,13,955,326,2014-08-01T19:00:00,1,20806201,201934
OK,326,13,955,326,2014-08-01T19:05:00,0,20806650,201934
OK,326,13,955,326,2014-08-01T19:10:00,0,20807099,201934
OK,84,52,955,84,2014-08-01T19:15:00,1,20807548,201934
OK,84,52,955,84,2014-08-01T19:20:00,1,20807997,201934
OK,84,52,955,84,2014-08-01T19:25:00,0,20808446,201934
OK,84,52,955,84,2014-08-01T19:30:00,0,20808895,201934
OK,144,30,955,144,2014-08-01T19:35:00,1,20809344,201934
OK,144,30,955,144,2014-08-01T19:40:00,1,20809793,201934
OK,111,39,955,111,2014-08-01T19:45:00,1,20810242,201934
OK,110,39,955,110,2014-08-01T19:50:00,1,20810691,201934
OK,110,39,955,110,2014-08-01T19:55:00,0,20811140,201934
OK,110,39,955,110,2014-08-01T22:00:00,0,20816869,201934
OK,110,39,955,110,2014-08-02T00:00:00,0,20823308,201934
OK,110,39,955,110,2014-08-02T00:05:00,0,20823757,201934
OK,110,39,955,110,2014-08-02T00:10:00,0,20824206,201934
OK,110,39,955,110,2014-08-02T00:15:00,0,20824655,201934
OK,110,39,955,110,2014-08-02T00:20:00,0,20825104,201934
OK,110,39,955,110,2014-08-02T00:25:00,0,20825553,201934
OK,110,39,955,110,2014-08-02T00:30:00,0,20826002,201934
OK,110,39,955,110,2014-08-02T00:35:00,0,20826451,201934
OK,110,39,955,110,2014-08-02T00:40:00,0,20826900,201934
OK,110,39,955,110,2014-08-02T00:45:00,0,20827349,201934
OK,110,39,955,110,2014-08-02T00:50:00,0,20827798,201934
OK,110,39,955,110,2014-08-02T00:55:00,0,20828247,201934
OK,110,39,955,110,2014-08-02T01:00:00,0,20828696,201934
OK,110,39,955,110,2014-08-02T01:05:00,0,20829145,201934
OK,110,39,955,110,2014-08-02T01:10:00,0,20829594,201934
OK,110,39,955,110,2014-08-02T01:15:00,0,20830043,201934
OK,110,39,955,110,2014-08-02T01:20:00,0,20830492,201934
OK,110,39,955,110,2014-08-02T01:25:00,0,20830941,201934
OK,110,39,955,110,2014-08-02T01:30:00,0,20831390,201934
OK,110,39,955,110,2014-08-02T01:35:00,0,20831839,201934
OK,110,39,955,110,2014-08-02T01:40:00,0,20832288,201934
OK,110,39,955,110,2014-08-02T01:45:00,0,20832737,201934
OK,110,39,955,110,2014-08-02T01:50:00,0,20833186,201934
OK,110,39,955,110,2014-08-02T01:55:00,0,20833635,201934
OK,110,39,955,110,2014-08-02T02:00:00,0,20834084,201934
OK,110,39,955,110,2014-08-02T02:05:00,0,20834533,201934
OK,110,39,955,110,2014-08-02T02:10:00,0,20834982,201934
OK,110,39,955,110,2014-08-02T02:15:00,0,20835431,201934
OK,110,39,955,110,2014-08-02T02:20:00,0,20835880,201934
OK,110,39,955,110,2014-08-02T02:25:00,0,20836329,201934
OK,110,39,955,110,2014-08-02T02:30:00,0,20836778,201934
OK,110,39,955,110,2014-08-02T02:35:00,0,20837227,201934
OK,110,39,955,110,2014-08-02T02:40:00,0,20837676,201934
OK,110,39,955,110,2014-08-02T02:45:00,0,20838125,201934
OK,110,39,955,110,2014-08-02T02:50:00,0,20838574,201934
OK,110,39,955,110,2014-08-02T02:55:00,0,20839023,201934
OK,110,39,955,110,2014-08-02T03:00:00,0,20839472,201934
OK,110,39,955,110,2014-08-02T03:05:00,0,20839921,201934
OK,110,39,955,110,2014-08-02T03:10:00,0,20840370,201934
OK,110,39,955,110,2014-08-02T03:15:00,0,20840819,201934
OK,110,39,955,110,2014-08-02T03:20:00,0,20841268,201934
OK,110,39,955,110,2014-08-02T03:25:00,0,20841717,201934
OK,110,39,955,110,2014-08-02T03:30:00,0,20842166,201934
OK,110,39,955,110,2014-08-02T03:35:00,0,20842615,201934
OK,110,39,955,110,2014-08-02T03:40:00,0,20843064,201934
OK,110,39,955,110,2014-08-02T03:45:00,0,20843513,201934
OK,110,39,955,110,2014-08-02T03:50:00,0,20843962,201934
OK,110,39,955,110,2014-08-02T03:55:00,0,20844411,201934
OK,96,45,955,96,2014-08-02T06:00:00,0,20851865,201934
OK,96,45,955,96,2014-08-02T06:05:00,0,20852314,201934
OK,96,45,955,96,2014-08-02T06:10:00,0,20852763,201934
OK,96,45,955,96,2014-08-02T06:15:00,0,20853212,201934
OK,96,45,955,96,2014-08-02T06:20:00,0,20853661,201934
OK,96,45,955,96,2014-08-02T06:25:00,0,20854110,201934
OK,104,42,955,104,2014-08-02T06:30:00,2,20854559,201934
OK,104,42,955,104,2014-08-02T06:35:00,2,20855008,201934
OK,85,51,955,85,2014-08-02T06:40:00,1,20855457,201934
OK,85,51,955,85,2014-08-02T06:45:00,1,20855906,201934
OK,142,30,955,142,2014-08-02T06:50:00,3,20856355,201934
OK,142,30,955,142,2014-08-02T06:55:00,3,20856804,201934
OK,142,30,955,142,2014-08-02T07:00:00,0,20857253,201934
OK,130,33,955,130,2014-08-02T07:05:00,1,20857702,201934
OK,130,33,955,130,2014-08-02T07:10:00,1,20858151,201934
OK,86,50,955,86,2014-08-02T07:15:00,2,20858600,201934
OK,86,50,955,86,2014-08-02T07:20:00,2,20859049,201934
OK,111,39,955,111,2014-08-02T07:25:00,0,20859498,201934
OK,126,34,955,126,2014-08-02T07:30:00,1,20859947,201934
OK,118,37,955,118,2014-08-02T07:35:00,3,20860396,201934
OK,117,37,955,117,2014-08-02T07:40:00,4,20860845,201934
OK,121,36,955,121,2014-08-02T07:45:00,2,20861294,201934
OK,88,49,955,88,2014-08-02T07:50:00,0,20861743,201934
OK,88,49,955,88,2014-08-02T07:55:00,0,20862192,201934
OK,130,33,955,130,2014-08-02T08:00:00,1,20862641,201934
OK,130,33,955,130,2014-08-02T08:05:00,1,20863090,201934
OK,93,47,955,93,2014-08-02T08:10:00,1,20863539,201934
OK,85,51,955,85,2014-08-02T08:15:00,2,20863988,201934
OK,71,61,955,71,2014-08-02T08:20:00,4,20864437,201934
OK,65,67,955,65,2014-08-02T08:25:00,3,20864886,201934
OK,134,32,955,134,2014-08-02T08:30:00,2,20865335,201934
OK,126,34,955,126,2014-08-02T08:35:00,3,20865784,201934
OK,115,38,955,115,2014-08-02T08:40:00,1,20866233,201934
OK,94,46,955,94,2014-08-02T08:45:00,2,20866682,201934
OK,103,42,955,103,2014-08-02T08:50:00,4,20867131,201934
OK,125,35,955,125,2014-08-02T08:55:00,2,20867580,201934
OK,133,32,955,133,2014-08-02T09:00:00,2,20868029,201934
OK,133,32,955,133,2014-08-02T09:05:00,4,20868478,201934
OK,128,34,955,128,2014-08-02T09:10:00,5,20868927,201934
OK,96,45,955,96,2014-08-02T09:15:00,3,20869376,201934
OK,161,27,955,161,2014-08-02T09:20:00,3,20869825,201934
OK,152,28,955,152,2014-08-02T09:25:00,3,20870274,201934
OK,138,31,955,138,2014-08-02T09:30:00,4,20870723,201934
OK,137,31,955,137,2014-08-02T09:35:00,3,20871172,201934
OK,104,42,955,104,2014-08-02T09:40:00,2,20871621,201934
OK,103,42,955,103,2014-08-02T09:45:00,4,20872070,201934
OK,138,31,955,138,2014-08-02T09:50:00,11,20872519,201934
OK,138,31,955,138,2014-08-02T09:55:00,7,20872968,201934
OK,135,32,955,135,2014-08-02T10:00:00,2,20873417,201934
OK,116,37,955,116,2014-08-02T10:05:00,4,20873866,201934
OK,121,36,955,121,2014-08-02T10:10:00,5,20874315,201934
OK,124,35,955,124,2014-08-02T10:15:00,3,20874764,201934
OK,100,43,955,100,2014-08-02T10:20:00,1,20875213,201934
OK,96,45,955,96,2014-08-02T10:25:00,2,20875662,201934
OK,106,41,955,106,2014-08-02T10:30:00,6,20876111,201934
OK,113,38,955,113,2014-08-02T10:35:00,8,20876560,201934
OK,118,37,955,118,2014-08-02T10:40:00,5,20877009,201934
OK,114,38,955,114,2014-08-02T10:45:00,5,20877458,201934
OK,124,35,955,124,2014-08-02T10:50:00,7,20877907,201934
OK,150,29,955,150,2014-08-02T10:55:00,4,20878356,201934
OK,146,29,955,146,2014-08-02T11:00:00,2,20878805,201934
OK,146,29,955,146,2014-08-02T11:05:00,2,20879254,201934
OK,146,29,955,146,2014-08-02T11:10:00,0,20879703,201934
OK,123,35,955,123,2014-08-02T11:15:00,2,20880152,201934
OK,124,35,955,124,2014-08-02T11:20:00,6,20880601,201934
OK,120,36,955,120,2014-08-02T11:25:00,8,20881050,201934
OK,95,46,955,95,2014-08-02T11:30:00,2,20881499,201934
OK,96,45,955,96,2014-08-02T11:35:00,0,20881948,201934
OK,96,45,955,96,2014-08-02T11:40:00,0,20882397,201934
OK,126,34,955,126,2014-08-02T11:45:00,2,20882846,201934
OK,142,30,955,142,2014-08-02T11:50:00,6,20883295,201934
OK,137,31,955,137,2014-08-02T11:55:00,6,20883744,201934
OK,139,31,955,139,2014-08-02T12:00:00,8,20884193,201934
OK,143,30,955,143,2014-08-02T12:05:00,7,20884642,201934
OK,188,23,955,188,2014-08-02T12:10:00,2,20885091,201934
OK,158,27,955,158,2014-08-02T12:15:00,4,20885540,201934
OK,155,28,955,155,2014-08-02T12:20:00,4,20885989,201934
OK,138,31,955,138,2014-08-02T12:25:00,2,20886438,201934
OK,116,37,955,116,2014-08-02T12:30:00,2,20886887,201934
OK,134,32,955,134,2014-08-02T12:35:00,2,20887336,201934
OK,124,35,955,124,2014-08-02T12:40:00,3,20887785,201934
OK,112,39,955,112,2014-08-02T12:45:00,4,20888234,201934
OK,103,42,955,103,2014-08-02T12:50:00,2,20888683,201934
OK,99,44,955,99,2014-08-02T12:55:00,0,20889132,201934
OK,121,36,955,121,2014-08-02T13:00:00,2,20889581,201934
OK,90,48,955,90,2014-08-02T13:05:00,5,20890030,201934
OK,90,48,955,90,2014-08-02T13:10:00,5,20890479,201934
OK,154,28,955,154,2014-08-02T13:15:00,2,20890928,201934
OK,134,32,955,134,2014-08-02T13:20:00,2,20891377,201934
OK,124,35,955,124,2014-08-02T13:25:00,3,20891826,201934
OK,124,35,955,124,2014-08-02T13:30:00,2,20892275,201934
OK,126,34,955,126,2014-08-02T13:35:00,4,20892724,201934
OK,128,34,955,128,2014-08-02T13:40:00,3,20893173,201934
OK,98,44,955,98,2014-08-02T13:45:00,1,20893622,201934
OK,87,50,955,87,2014-08-02T13:50:00,2,20894071,201934
OK,77,56,955,77,2014-08-02T13:55:00,1,20894520,201934
OK,67,65,955,67,2014-08-02T14:00:00,2,20894969,201934
OK,67,65,955,67,2014-08-02T14:05:00,2,20895418,201934
OK,151,28,955,151,2014-08-02T14:10:00,2,20895867,201934
OK,133,32,955,133,2014-08-02T14:15:00,3,20896316,201934
OK,127,34,955,127,2014-08-02T14:20:00,2,20896765,201934
OK,122,35,955,122,2014-08-02T14:25:00,0,20897214,201934
OK,276,15,955,276,2014-08-02T14:30:00,1,20897663,201934
OK,213,20,955,213,2014-08-02T14:35:00,2,20898112,201934
OK,154,28,955,154,2014-08-02T14:40:00,4,20898561,201934
OK,92,47,955,92,2014-08-02T14:45:00,7,20899010,201934
OK,92,47,955,92,2014-08-02T14:50:00,3,20899459,201934
OK,127,34,955,127,2014-08-02T14:55:00,3,20899908,201934
OK,191,22,955,191,2014-08-02T15:00:00,1,20900357,201934
OK,143,30,955,143,2014-08-02T15:05:00,2,20900806,201934
OK,96,45,955,96,2014-08-02T15:10:00,2,20901255,201934
OK,111,39,955,111,2014-08-02T15:15:00,6,20901704,201934
OK,126,34,955,126,2014-08-02T15:20:00,7,20902153,201934
OK,115,38,955,115,2014-08-02T15:25:00,3,20902602,201934
OK,121,36,955,121,2014-08-02T15:30:00,6,20903051,201934
OK,129,33,955,129,2014-08-02T15:35:00,5,20903500,201934
OK,157,27,955,157,2014-08-02T15:40:00,1,20903949,201934
OK,156,28,955,156,2014-08-02T15:45:00,1,20904398,201934
OK,95,46,955,95,2014-08-02T15:50:00,2,20904847,201934
OK,147,29,955,147,2014-08-02T15:55:00,4,20905296,201934
OK,150,29,955,150,2014-08-02T16:00:00,2,20905745,201934
OK,138,31,955,138,2014-08-02T16:05:00,1,20906194,201934
OK,132,33,955,132,2014-08-02T16:10:00,2,20906643,201934
OK,137,31,955,137,2014-08-02T16:15:00,3,20907092,201934
OK,135,32,955,135,2014-08-02T16:20:00,4,20907541,201934
OK,118,37,955,118,2014-08-02T16:25:00,1,20907990,201934
OK,118,37,955,118,2014-08-02T16:30:00,1,20908439,201934
OK,91,48,955,91,2014-08-02T16:35:00,4,20908888,201934
OK,85,51,955,85,2014-08-02T16:40:00,5,20909337,201934
OK,75,58,955,75,2014-08-02T16:45:00,2,20909786,201934
OK,65,67,955,65,2014-08-02T16:50:00,0,20910235,201934
OK,113,38,955,113,2014-08-02T16:55:00,2,20910684,201934
OK,97,45,955,97,2014-08-02T17:00:00,4,20911133,201934
OK,101,43,955,101,2014-08-02T17:05:00,5,20911582,201934
OK,101,43,955,101,2014-08-02T17:10:00,1,20912031,201934
OK,101,43,955,101,2014-08-02T17:15:00,0,20912480,201934
OK,83,52,955,83,2014-08-02T17:20:00,1,20912929,201934
OK,96,45,955,96,2014-08-02T17:25:00,1,20913378,201934
OK,96,45,955,96,2014-08-02T17:30:00,1,20913827,201934
OK,118,37,955,118,2014-08-02T17:35:00,1,20914276,201934
OK,118,37,955,118,2014-08-02T17:40:00,0,20914725,201934
OK,135,32,955,135,2014-08-02T17:45:00,1,20915174,201934
OK,79,55,955,79,2014-08-02T17:50:00,1,20915623,201934
OK,79,55,955,79,2014-08-02T17:55:00,1,20916072,201934
OK,79,55,955,79,2014-08-02T18:00:00,0,20916521,201934
OK,102,42,955,102,2014-08-02T18:05:00,2,20916970,201934
OK,102,42,955,102,2014-08-02T18:10:00,2,20917419,201934
OK,80,54,955,80,2014-08-02T18:15:00,1,20917868,201934
OK,80,54,955,80,2014-08-02T18:20:00,1,20918317,201934
OK,102,42,955,102,2014-08-02T18:25:00,0,20918766,201934
OK,102,42,955,102,2014-08-02T18:30:00,0,20919215,201934
OK,102,42,955,102,2014-08-02T18:35:00,0,20919664,201934
OK,135,32,955,135,2014-08-02T18:40:00,1,20920113,201934
OK,135,32,955,135,2014-08-02T18:45:00,0,20920562,201934
OK,114,38,955,114,2014-08-02T18:50:00,2,20921011,201934
OK,135,32,955,135,2014-08-02T18:55:00,2,20921460,201934
OK,136,32,955,136,2014-08-02T19:00:00,1,20921909,201934
OK,136,32,955,136,2014-08-02T19:05:00,0,20922358,201934
OK,136,32,955,136,2014-08-02T19:10:00,0,20922807,201934
OK,134,32,955,134,2014-08-02T19:15:00,2,20923256,201934
OK,130,33,955,130,2014-08-02T19:20:00,1,20923705,201934
OK,130,33,955,130,2014-08-02T19:25:00,0,20924154,201934
OK,118,37,955,118,2014-08-02T19:30:00,3,20924603,201934
OK,114,38,955,114,2014-08-02T19:35:00,2,20925052,201934
OK,114,38,955,114,2014-08-02T19:40:00,0,20925501,201934
OK,114,38,955,114,2014-08-02T19:45:00,0,20925950,201934
OK,114,38,955,114,2014-08-02T19:50:00,0,20926399,201934
OK,114,38,955,114,2014-08-02T19:55:00,0,20926848,201934
OK,112,39,955,112,2014-08-02T20:00:00,1,20927297,201934
OK,121,36,955,121,2014-08-02T20:05:00,2,20927746,201934
OK,131,33,955,131,2014-08-02T20:10:00,1,20928195,201934
OK,131,33,955,131,2014-08-02T20:15:00,0,20928644,201934
OK,131,33,955,131,2014-08-02T20:20:00,0,20929093,201934
OK,120,36,955,120,2014-08-02T20:25:00,2,20929542,201934
OK,127,34,955,127,2014-08-02T20:30:00,1,20929991,201934
OK,127,34,955,127,2014-08-02T20:35:00,0,20930440,201934
OK,109,40,955,109,2014-08-02T20:40:00,2,20930889,201934
OK,109,40,955,109,2014-08-02T20:45:00,2,20931338,201934
OK,109,40,955,109,2014-08-02T20:50:00,0,20931787,201934
OK,134,32,955,134,2014-08-02T20:55:00,1,20932236,201934
OK,134,32,955,134,2014-08-02T21:00:00,0,20932685,201934
OK,137,31,955,137,2014-08-02T21:05:00,1,20933134,201934
OK,137,31,955,137,2014-08-02T21:10:00,1,20933583,201934
OK,129,33,955,129,2014-08-02T21:15:00,2,20934032,201934
OK,129,33,955,129,2014-08-02T21:20:00,2,20934481,201934
OK,106,41,955,106,2014-08-02T21:25:00,1,20934930,201934
OK,106,41,955,106,2014-08-02T21:30:00,1,20935379,201934
OK,106,41,955,106,2014-08-02T21:35:00,0,20935828,201934
OK,106,41,955,106,2014-08-02T21:40:00,0,20936277,201934
OK,106,41,955,106,2014-08-02T21:45:00,0,20936726,201934
OK,106,41,955,106,2014-08-02T21:50:00,0,20937175,201934
OK,112,39,955,112,2014-08-02T21:55:00,1,20937624,201934
OK,112,39,955,112,2014-08-02T22:00:00,0,20938073,201934
OK,112,39,955,112,2014-08-02T22:05:00,0,20938522,201934
OK,112,39,955,112,2014-08-02T22:10:00,0,20938971,201934
OK,112,39,955,112,2014-08-02T22:15:00,0,20939420,201934
OK,112,39,955,112,2014-08-02T22:20:00,0,20939869,201934
OK,97,45,955,97,2014-08-02T22:25:00,1,20940318,201934
OK,97,45,955,97,2014-08-02T22:30:00,1,20940767,201934
OK,97,45,955,97,2014-08-02T22:35:00,0,20941216,201934
OK,131,33,955,131,2014-08-02T22:40:00,1,20941665,201934
OK,131,33,955,131,2014-08-02T22:45:00,1,20942114,201934
OK,131,33,955,131,2014-08-02T22:50:00,0,20942563,201934
OK,106,41,955,106,2014-08-02T22:55:00,1,20943012,201934
OK,106,41,955,106,2014-08-02T23:00:00,0,20943461,201934
OK,106,41,955,106,2014-08-02T23:10:00,0,20943910,201934
OK,154,28,955,154,2014-08-02T23:15:00,1,20944359,201934
OK,165,26,955,165,2014-08-02T23:20:00,2,20944808,201934
OK,165,26,955,165,2014-08-02T23:25:00,0,20945257,201934
OK,165,26,955,165,2014-08-02T23:30:00,0,20945706,201934
OK,165,26,955,165,2014-08-02T23:35:00,0,20946155,201934
OK,165,26,955,165,2014-08-02T23:40:00,0,20946604,201934
OK,165,26,955,165,2014-08-02T23:45:00,0,20947053,201934
OK,165,26,955,165,2014-08-02T23:50:00,0,20947502,201934
OK,165,26,955,165,2014-08-02T23:55:00,0,20947951,201934
OK,165,26,955,165,2014-08-03T00:00:00,0,20948400,201934
OK,165,26,955,165,2014-08-03T00:05:00,0,20948849,201934
OK,165,26,955,165,2014-08-03T00:10:00,0,20949297,201934
OK,96,45,955,96,2014-08-03T00:15:00,1,20949746,201934
OK,96,45,955,96,2014-08-03T00:20:00,0,20950195,201934
OK,96,45,955,96,2014-08-03T00:25:00,0,20950644,201934
OK,96,45,955,96,2014-08-03T00:30:00,0,20951093,201934
OK,96,45,955,96,2014-08-03T00:35:00,0,20951542,201934
OK,59,74,955,59,2014-08-03T00:40:00,1,20951991,201934
OK,59,74,955,59,2014-08-03T00:45:00,1,20952440,201934
OK,59,74,955,59,2014-08-03T00:50:00,0,20952889,201934
OK,59,74,955,59,2014-08-03T00:55:00,0,20953338,201934
OK,59,74,955,59,2014-08-03T01:00:00,0,20953787,201934
OK,59,74,955,59,2014-08-03T01:05:00,0,20954236,201934
OK,59,74,955,59,2014-08-03T01:10:00,0,20954685,201934
OK,59,74,955,59,2014-08-03T01:15:00,0,20955134,201934
OK,59,74,955,59,2014-08-03T01:20:00,0,20955583,201934
OK,59,74,955,59,2014-08-03T01:25:00,0,20956032,201934
OK,59,74,955,59,2014-08-03T01:30:00,0,20956481,201934
OK,59,74,955,59,2014-08-03T01:35:00,0,20956930,201934